Regional Weather Roundup
Issued by NWS

Home | Current Version | Previous Version | Text Only | Print | Product List | Glossary On
Versions: 1 2 3 4 5 6 7 8 9 10 11 12 13 14 15 16 17 18 19 20 21 22 23 24 25 26 27 28 29 30 31 32 33 34 35 36 37 38 39 40 41 42 43 44 45 46 47 48 49 50
000
ASUS43 KDTX 271510
RWRMI
MICHIGAN HOURLY REGIONAL WEATHER ROUNDUP
NATIONAL WEATHER SERVICE DETROIT/PONTIAC MI
ISSUED BY NATIONAL WEATHER SERVICE GRAND RAPIDS MI
1100 AM EDT THU JUL 27 2017

NOTE: "FAIR" INDICATES FEW OR NO CLOUDS BELOW 12,000 FEET WITH NO
SIGNIFICANT WEATHER AND/OR OBSTRUCTION TO VISIBILITY.

MIZ047>049-052>055-059>063-066>070-074>076-081>083-271600-
SOUTHEAST LOWER MICHIGAN

CITY           SKY/WX    TMP DP  RH WIND       PRES   REMARKS
ADRIAN         MOSUNNY   80  67  64 VRB3      29.94F
ALMA           CLOUDY    70  68  93 N10       29.96S
ANN ARBOR      MOSUNNY   82  66  58 VRB5      29.93F
BAD AXE        CLOUDY    72  68  88 N8        29.97S
DETROIT CITY   MOSUNNY   81  64  56 NW6       29.94S
DETROIT        CLOUDY    82  66  58 VRB3      29.93F
FLINT          LGT RAIN  70  67  90 N9        29.96F
GROSSE ILE     CLOUDY    78  67  69 SE5       29.93S
HILLSDALE      CLOUDY    77  66  69 NE3       29.94S
HOWELL         CLOUDY    73  65  75 NE7       29.96S

CITY           SKY/WX    TMP DP  RH WIND       PRES   REMARKS
JACKSON        MOSUNNY   80  64  58 NE7       29.94S
LANSING        CLOUDY    75  66  73 NE9       29.96S
MASON          PTSUNNY   76  68  75 N8        29.95F
MONROE         MOSUNNY   79  67  66 CALM      29.93S
MT. CLEMENS    LGT RAIN  77  70  78 NE5       29.93F
PONTIAC        PTSUNNY   75  66  73 N14       29.95S
PORT HOPE        N/A     69  67  93 N10       29.96R
PORT HURON     CLOUDY    73  68  83 CALM      29.96R
TRI CITIES     LGT RAIN  71  71 100 N7        29.98S FOG
YPSILANTI      SUNNY     82  68  62 CALM      29.94F
$$
MIZ043>046-050>051-056>058-064>065-071>073-077>080-271600-
SOUTHWEST LOWER MICHIGAN

CITY           SKY/WX    TMP DP  RH WIND       PRES   REMARKS
BATTLE CREEK   PTSUNNY   81  67  62 NE12      29.94F
BENTON HARBOR  MOSUNNY   81  69  67 VRB5      29.92S
BIG RAPIDS     CLOUDY    72  66  81 NE7       29.97F
COLDWATER      CLOUDY    78  70  74 CALM      29.94S
HOLLAND        PTSUNNY   79  69  71 VRB7      29.94S
GRAND RAPIDS   PTSUNNY   79  69  71 NE9       29.94S
KALAMAZOO      SUNNY     82  66  58 NE6       29.93F
MARSHALL       PTSUNNY   79  68  69 CALM      29.93F
MOUNT PLEASANT PTSUNNY   73  68  83 NE8       29.97R
MUSKEGON       CLOUDY    77  69  76 N7        29.95S
STURGIS        PTSUNNY   77  70  79 CALM      29.93S
$$
MIZ016>042-271600-
NORTHERN LOWER MICHIGAN

CITY           SKY/WX    TMP DP  RH WIND       PRES   REMARKS
ALPENA         SUNNY     74  65  73 N7        30.00R
BEAVER ISLAND  SUNNY     71  60  67 NE9       30.03S
BELLAIRE       SUNNY     73  63  72 CALM      30.00S
CADILLAC       SUNNY     76  60  57 NE8       30.00S
CHARLEVOIX     SUNNY     69  65  86 N9        30.04S
GAYLORD        SUNNY     72  61  68 NE7       30.02R
HOUGHTON LAKE  SUNNY     75  60  59 NE8       30.00S
MANISTEE       SUNNY     76  64  66 NE7       29.98S
OSCODA         MOSUNNY   73  66  77 NE6       29.97S
PELLSTON       SUNNY     72  60  66 N9        30.02R
TRAVERSE CITY  MOSUNNY   72  63  73 NE8       29.99S
LUDINGTON      CLOUDY    75  65  71 NE8       29.97S
$$
MIZ007>008-015-271600-
EASTERN UPPER MICHIGAN

CITY           SKY/WX    TMP DP  RH WIND       PRES   REMARKS
KINROSS        SUNNY     68  60  75 NW6       30.02S
MACKINAC ISLAN SUNNY     69  63  80 N8        30.02S
NEWBERRY       SUNNY     69  60  75 NE7       30.03S
S. S. MARIE    SUNNY     71  59  65 NW5       30.01S
$$
MIZ004>006-011>014-085-271600-
CENTRAL UPPER MICHIGAN

CITY           SKY/WX    TMP DP  RH WIND       PRES   REMARKS
MANISTIQUE     SUNNY     71  62  71 N5        30.03S
ESCANABA       SUNNY     72  61  68 NE7       30.04R
MENOMINEE      SUNNY     73  60  63 E13       30.04S
SAWYER-GWINN   SUNNY     68  57  68 N9        30.08S
$$
MIZ001>003-009>011-084-271600-
WESTERN UPPER MICHIGAN

CITY           SKY/WX    TMP DP  RH WIND       PRES   REMARKS
IRON MOUNTAIN  SUNNY     73  55  53 VRB6      30.06S
HOUGHTON       PTSUNNY   68  55  63 E8        30.10R
COPPER HARBOR    N/A     66  53  63 CALM      30.08S
IRONWOOD       SUNNY     74  60  61 E5        30.10S
$$

ABBREVIATIONS USED IN REMARKS
   TC - TEMPERATURE IN CELSIUS
  WCI - WIND CHILL INDEX
   HX - HEAT INDEX
  VSB - VISIBILITY




USA.gov is the U.S. government's official web portal to all federal, state and local government web resources and services.